{"data":{"norad_id":59903,"intl_designator":"2024-100U","name":"STARLINK-31850","alt_names":[],"object_type":"PAYLOAD","status":"ACTIVE","operator":null,"country":"US","launch_date":"2024-05-28","launch_site_code":"AFETR","launch_vehicle":null,"mission":null,"orbit_class":"UNKNOWN","rcs_meters":null,"size_class":null,"mass_kg":null,"dimensions":null,"purposes":["comms"],"wikipedia_slug":null,"has_3d_model":false,"image_url":null,"decayed_at":null,"tle_current":{"epoch":"2026-05-25T03:35:54.072096Z","epoch_age_seconds":55487,"freshness":"FRESH","line1":"1 59903U 24100U   26145.14993139  .00000530  00000+0  28763-4 0  9997","line2":"2 59903  43.0030  53.3045 0001213 270.3609  89.7104 15.27584273112795","mean_motion":15.27584273,"eccentricity":0.0001213,"inclination_deg":43.003,"raan_deg":53.3045,"arg_perigee_deg":270.3609,"mean_anomaly_deg":89.7104,"bstar":2.8763e-5,"rev_number":11279,"period_min":94.266485028155,"perigee_km":482.20404084884,"apogee_km":483.86856149171,"semimajor_km":6861.1733011703,"source":"CELESTRAK","updated_at":"2026-05-25T13:38:19.120069Z"}}}